Weather in Taskent

Turkey     36°55′13″N   32°29′32″E
temp.,
°C
wind,
m/s
gust,
m/s
humid.,
%
clouds,
%
prec.,
mm/h
press.,
hPa
HPBL,
m
13 april, tue
tue1300:000nw01735 0.0 102310
03:000wsw117332 0.0 102210
06:000w117595 0.0 102110
09:00+4n22615 0.0 1020442
12:00+7n355269 0.0 10191291
15:00+9n454875 0.0 10171494
18:00+10n344125 0.0 10171657
21:00+6ene115890 0.0 101916
14 april, wed
wed1400:00+5s2370100 0.0 102057
03:00+5ssw2274100 0.0 101938
06:00+5ssw3269100 0.0 101830
09:00+9s225163 0.0 1018372
12:00+13sw363834 0.0 10161879
15:00+14wsw663794 0.0 10152109
18:00+12sw3445100 0.0 10161060
21:00+9ssw237282 0.1 101880
15 april, thu
thu1500:00+8ssw3372100 0.0 101867
03:00+7ssw3359100 0.0 101741
06:00+6ssw3354100 0.0 101739
09:00+10ssw343844 0.0 1017415
12:00+14sw673440 0.0 10161841
15:00+14sw78361 0.0 10151838
18:00+12sw57405 0.0 10161243
21:00+9ssw3255100 0.0 101740
16 april, fri
fri1600:00+8ssw3358100 0.0 101764
03:00+7ssw3351100 0.0 101647
06:00+6ssw335093 0.0 101625
09:00+11s23386 0.0 1016479
12:00+16ssw342814 0.0 10151431
15:00+17sw552878 0.0 10141613
18:00+16sw333219 0.0 1014839
21:00+12ssw2246100 0.0 101618
17 april, sat
sat1700:00+11ssw22459 0.0 101712
03:00+9s2245100 0.0 101611
06:00+9ssw3342100 0.0 101618
09:00+13ssw2337100 0.0 1017178
12:00+17s1331100 0.0 10171032
15:00+20ssw2430100 0.0 10151335
18:00+18sw3436100 0.0 1016762
21:00+14s3352100 0.0 101853